Nantucket, Massachusetts, United States (02554)
Lat: 41.28N, Lon: 70.1W
Wx Zone: MAZ024
Local Info
Past Weather Observations for Today

NOTE: This archive is for the closest National Weather Service station to Nantucket. Information may differ from the station used for current weather conditions.

Click here for Long-term Archive

Time Weather Temperature Dewpoint Humidity Pressure Winds Precip Visibility
19:53
Mostly Cloudy
64°F / 18°C 61°F / 16°C 88% 30.06 in
(1018 mb)
NE 10.4 mph
(NE 17 kph)
- 10SM
18:53
Mostly Cloudy
64°F / 18°C 61°F / 16°C 88% 30.06 in
(1018 mb)
NE 10.4 mph
(NE 17 kph)
- 10SM
17:53
Overcast
66°F / 19°C 61°F / 16°C 83% 30.06 in
(1018 mb)
NE 9.2 mph
(NE 15 kph)
- 10SM
16:53
Clear
66°F / 19°C 59°F / 15°C 78% 30.04 in
(1017 mb)
ENE 12.7 mph
(ENE 20 kph)
- 10SM
15:53
Clear
66°F / 19°C 61°F / 16°C 83% 30.04 in
(1017 mb)
ENE 12.7 mph
(ENE 20 kph)
- 10SM
14:53
Mostly Cloudy
66°F / 19°C 61°F / 16°C 83% 30.04 in
(1017 mb)
NE 12.7 mph
(NE 20 kph)
- 10SM
13:53
Overcast
66°F / 19°C 61°F / 16°C 83% 30.06 in
(1018 mb)
NE 10.4 mph
(NE 17 kph)
0.00 in
(0.00 mm)
10SM
12:53
Overcast
Light Rain
66°F / 19°C 61°F / 16°C 83% 30.06 in
(1018 mb)
ENE 12.7 mph
(ENE 20 kph)
0.00 in
(0.00 mm)
10SM
11:53
Overcast
66°F / 19°C 61°F / 16°C 83% 30.06 in
(1018 mb)
E 11.5 mph
(E 19 kph)
- 10SM
10:53
Partly Cloudy
70°F / 21°C 61°F / 16°C 73% 30.06 in
(1018 mb)
ENE 12.7 mph
(ENE 20 kph)
- 10SM
09:53
Partly Cloudy
70°F / 21°C 61°F / 16°C 73% 30.06 in
(1018 mb)
E 15 mph
(E 24 kph)
- 10SM
08:53
Mostly Cloudy
66°F / 19°C 63°F / 17°C 88% 30.06 in
(1018 mb)
NE 9.2 mph
(NE 15 kph)
- 10SM
08:33
Mostly Cloudy
66°F / 19°C 63°F / 17°C 88% 30.06 in
(1018 mb)
NE 10.4 mph
(NE 17 kph)
- 10SM
08:06
Overcast
Fog And Mist
64°F / 18°C 63°F / 17°C 94% 30.06 in
(1018 mb)
NE 8.1 mph
(NE 13 kph)
- 3SM
07:53
Overcast
Fog And Mist
64°F / 18°C 63°F / 17°C 94% 30.06 in
(1018 mb)
NE 11.5 mph
(NE 19 kph)
- 1SM
07:49
Overcast
Fog And Mist
64°F / 18°C 63°F / 17°C 94% 30.06 in
(1018 mb)
NE 10.4 mph
(NE 17 kph)
- 1 3/4SM
07:05
Overcast
Fog And Mist
63°F / 17°C 63°F / 17°C 100% 30.06 in
(1018 mb)
NE 8.1 mph
(NE 13 kph)
- 3SM
06:59
Overcast
Fog And Mist
63°F / 17°C 63°F / 17°C 100% 30.06 in
(1018 mb)
NE 10.4 mph
(NE 17 kph)
- 1 3/4SM
06:53
Overcast
Fog And Mist
63°F / 17°C 63°F / 17°C 100% 30.06 in
(1018 mb)
ENE 9.2 mph
(ENE 15 kph)
- 3SM
06:35
Mostly Cloudy
64°F / 18°C 63°F / 17°C 94% 30.06 in
(1018 mb)
ENE 9.2 mph
(ENE 15 kph)
- 10SM
06:27
Partly Cloudy
64°F / 18°C 63°F / 17°C 94% 30.06 in
(1018 mb)
NE 6.9 mph
(NE 11 kph)
- 10SM
05:53
Clear
63°F / 17°C 61°F / 16°C 94% 30.06 in
(1018 mb)
NE 5.8 mph
(NE 9 kph)
- 10SM
04:53
Clear
59°F / 15°C 57°F / 14°C 94% 30.06 in
(1018 mb)
Calm - 7SM
04:37
Partly Cloudy
Fog And Mist
59°F / 15°C 57°F / 14°C 94% 30.04 in
(1017 mb)
NE 6.9 mph
(NE 11 kph)
- 3SM
04:24
Obscured
Fog And Mist
59°F / 15°C 57°F / 14°C 94% 30.04 in
(1017 mb)
NE 8.1 mph
(NE 13 kph)
- 1SM
04:14
Mostly Cloudy
Fog And Mist
61°F / 16°C 59°F / 15°C 94% 30.04 in
(1017 mb)
NE 5.8 mph
(NE 9 kph)
- 2SM
04:04
Obscured
Fog
61°F / 16°C 59°F / 15°C 94% 30.04 in
(1017 mb)
NE 5.8 mph
(NE 9 kph)
- 1/2SM
03:53
Obscured
Fog
61°F / 16°C 59°F / 15°C 94% 30.04 in
(1017 mb)
NE 6.9 mph
(NE 11 kph)
0.01 in
(0.25 mm)
1/4SM
03:40
Obscured
Fog
61°F / 16°C 59°F / 15°C 94% 30.04 in
(1017 mb)
NNE 5.8 mph
(NNE 9 kph)
0.01 in
(0.25 mm)
1/4SM
03:30
Obscured
Fog
61°F / 16°C 59°F / 15°C 94% 30.04 in
(1017 mb)
NNE 6.9 mph
(NNE 11 kph)
0.01 in
(0.25 mm)
1/4SM
03:20
Obscured
Fog
59°F / 15°C 57°F / 14°C 94% 30.04 in
(1017 mb)
NE 5.8 mph
(NE 9 kph)
0.01 in
(0.25 mm)
1/4SM
03:13
Obscured
Fog
59°F / 15°C 57°F / 14°C 94% 30.04 in
(1017 mb)
NE 5.8 mph
(NE 9 kph)
- 1/4SM
02:53
Obscured
Fog And Mist
59°F / 15°C 59°F / 15°C 100% 30.04 in
(1017 mb)
NNE 5.8 mph
(NNE 9 kph)
- 3/4SM
02:39
Overcast
Fog And Mist
59°F / 15°C 59°F / 15°C 100% 30.04 in
(1017 mb)
NE 4.6 mph
(NE 7 kph)
- 1 1/4SM
02:19
Overcast
Fog And Mist
59°F / 15°C 57°F / 14°C 94% 30.04 in
(1017 mb)
NE 5.8 mph
(NE 9 kph)
- 2SM
02:08
Obscured
Fog And Mist
59°F / 15°C 57°F / 14°C 94% 30.04 in
(1017 mb)
NE 8.1 mph
(NE 13 kph)
- 1SM
01:53
Obscured
Fog And Mist
61°F / 16°C 59°F / 15°C 94% 30.04 in
(1017 mb)
NE 5.8 mph
(NE 9 kph)
- 3/4SM
01:36
Obscured
Fog And Mist
61°F / 16°C 61°F / 16°C 100% 30.04 in
(1017 mb)
ENE 5.8 mph
(ENE 9 kph)
- 1SM
01:25
Obscured
Fog And Mist
61°F / 16°C 61°F / 16°C 100% 30.04 in
(1017 mb)
NE 6.9 mph
(NE 11 kph)
- 3/4SM
01:00
Overcast
Fog And Mist
61°F / 16°C 61°F / 16°C 100% 30.06 in
(1018 mb)
NE 6.9 mph
(NE 11 kph)
- 1 1/4SM
00:53
Overcast
Fog And Mist
63°F / 17°C 61°F / 16°C 94% 30.06 in
(1018 mb)
NE 8.1 mph
(NE 13 kph)
- 2SM
00:20
Overcast
63°F / 17°C 61°F / 16°C 94% 30.06 in
(1018 mb)
E 6.9 mph
(E 11 kph)
- 10SM
00:01
Mostly Cloudy
63°F / 17°C 61°F / 16°C 94% 30.06 in
(1018 mb)
ENE 6.9 mph
(ENE 11 kph)
- 10SM
Time Weather Temperature Dewpoint Humidity Pressure Winds Precip Visibility


Weather for websites

WeatherForYou.com, LLC is not responsible for any damages or problems caused by this service. Current weather conditions are obtained from the closest station including government and personal stations which may have varying degrees of accuracy. Weather forecasts are derived from the NOAA NDFD. Like all things, this site belongs to Jesus Christ... He just trusts me to maintain it. If you have any questions or comments email webmaster@weatherforyou.com

Copyright © 2014, WeatherForYou.com LLC. All rights reserved.